DW9005 Weather Reports


time (UTC)temp
C
wind
direction
speed
KPH
gust
KPH
rain 1hr
cm
rain 24hr
cm
rain mn
cm
humidity
%
barometer
mb
20260903180109 35 0.0 0.0 0.00 0.00 0.00 55 1015.8
20260903174526 34 0.0 0.0 0.00 0.00 0.00 54 1016.0
20260903173024 33 0.0 0.0 0.00 0.00 0.00 66 1016.2
20260903171505 33 0.0 0.0 0.00 0.00 0.00 64 1016.4
20260903170004 33 0.0 0.0 0.00 0.00 0.00 63 1016.6
20260903164547 33 0.0 0.0 0.00 0.00 0.00 64 1016.7
20260903163045 -17 0.0 0.0 0.00 0.00 0.00 1017.0
20260903161520 -17 0.0 0.0 0.00 0.00 0.00 1017.2
20260903160016 -17 0.0 0.0 0.00 0.00 0.00 1017.2
20260903154611 -17 0.0 0.0 0.00 0.00 0.00 1017.4
20260903153049 -17 0.0 0.0 0.00 0.00 0.00 1017.4
20260903151550 -17 0.0 0.0 0.00 0.00 0.00 1017.3
20260903150023 -17 0.0 0.0 0.00 0.00 0.00 1017.1
20260903144520 -17 0.0 0.0 0.00 0.00 0.00 1017.1
20260903143058 -17 0.0 0.0 0.00 0.00 0.00 1017.0
20260903141554 -17 0.0 0.0 0.00 0.00 0.00 1016.9
20260903140031 -17 0.0 0.0 0.00 0.00 0.00 1017.0
20260903134527 -17 0.0 0.0 0.00 0.00 0.00 1016.9
20260903133008 25 0.0 0.0 0.00 0.00 0.00 91 1017.0
20260903131505 25 0.0 0.0 0.00 0.00 0.00 93 1017.0
20260903130108 24 0.0 0.0 0.00 0.00 0.00 94 1017.0
20260903124543 23 0.0 0.0 0.00 0.00 0.00 95 1016.9
20260903123025 23 0.0 0.0 0.00 0.00 0.00 95 1016.9
20260903121524 23 0.0 0.0 0.00 0.00 0.00 95 1016.9
20260903120005 23 0.0 0.0 0.00 0.00 0.00 95 1016.7
20260903114505 23 0.0 0.0 0.00 0.00 0.00 95 1016.5
20260903113047 23 0.0 0.0 0.00 0.00 0.00 95 1016.6
20260903111545 23 0.0 0.0 0.00 0.00 0.00 95 1016.4
20260903110104 23 0.0 0.0 0.00 0.00 0.00 95 1016.3
20260903104527 23 0.0 0.0 0.00 0.00 0.00 95 1016.1
20260903103008 23 0.0 0.0 0.00 0.00 0.00 95 1016.1
20260903101508 23 0.0 0.0 0.00 0.00 0.00 95 1016.1
20260903100049 23 0.0 0.0 0.00 0.00 0.00 95 1016.1
20260903094554 23 0.0 0.0 0.00 0.00 0.00 95 1016.1
20260903093033 23 0.0 0.0 0.00 0.00 0.00 95 1016.1
20260903091528 23 0.0 0.0 0.00 0.00 0.00 94 1016.0
20260903090009 23 0.0 0.0 0.00 0.00 0.00 94 1015.9
20260903084508 23 0.0 0.0 0.00 0.00 0.00 94 1015.9
20260903083049 23 0.0 0.0 0.00 0.00 0.00 95 1016.0
20260903081549 23 0.0 0.0 0.00 0.00 0.00 94 1015.9
20260903080029 24 0.0 0.0 0.00 0.00 0.00 94 1015.7
20260903074528 24 0.0 0.0 0.00 0.00 0.00 94 1015.8
20260903073011 24 0.0 0.0 0.00 0.00 0.00 94 1016.0
20260903071509 24 0.0 0.0 0.00 0.00 0.00 94 1016.0
20260903070050 24 0.0 0.0 0.00 0.00 0.00 94 1016.0
20260903064551 24 0.0 0.0 0.00 0.00 0.00 94 1016.0
20260903063036 24 0.0 0.0 0.00 0.00 0.00 94 1016.1
20260903061546 25 0.0 0.0 0.00 0.00 0.00 93 1016.1
20260903060014 25 0.0 0.0 0.00 0.00 0.00 93 1016.2
20260903054536 25 0.0 0.0 0.00 0.00 0.00 93 1016.2
20260903053110 25 0.0 0.0 0.00 0.00 0.00 93 1016.1
20260903051558 25 0.0 0.0 0.00 0.00 0.00 93 1016.2
20260903050038 25 0.0 0.0 0.00 0.00 0.00 93 1016.2
20260903044550 25 0.0 0.0 0.00 0.00 0.00 92 1016.1
20260903043024 25 0.0 0.0 0.00 0.00 0.00 92 1016.2
20260903041518 25 0.0 0.0 0.00 0.00 0.00 91 1016.2
20260903040003 25 0.0 0.0 0.00 0.00 0.00 91 1016.0
20260903034502 26 0.0 0.0 0.00 0.00 0.00 90 1016.1
20260903033043 26 0.0 0.0 0.00 0.00 0.00 90 1016.1
20260903031542 26 0.0 0.0 0.00 0.00 0.00 89 1016.2
20260903030036 26 0.0 0.0 0.00 0.00 0.00 88 1016.2
20260903024536 26 0.0 0.0 0.00 0.00 0.00 87 1016.2
20260903023010 26 0.0 0.0 0.00 0.00 0.00 87 1016.3
20260903021509 27 0.0 0.0 0.00 0.00 0.00 86 1016.2
20260903020049 27 0.0 0.0 0.00 0.00 0.00 85 1016.1
20260903014550 27 0.0 0.0 0.00 0.00 0.00 84 1015.9
20260903013030 27 0.0 0.0 0.00 0.00 0.00 83 1015.7
20260903011539 28 0.0 0.0 0.00 0.00 0.00 82 1015.7
20260903010013 28 0.0 0.0 0.00 0.00 0.00 80 1015.4
20260903004525 29 0.0 0.0 0.00 0.00 0.00 77 1015.3
20260903003059 30 0.0 0.0 0.00 0.00 0.00 75 1015.3
20260903001554 30 0.0 0.0 0.00 0.00 0.00 72 1015.3
20260903000036 31 0.0 0.0 0.00 0.00 0.00 71 1015.2
20260902234536 32 0.0 0.0 0.00 0.00 0.00 64 1015.2
20260902233028 33 0.0 0.0 0.00 0.00 0.00 59 1015.1
20260902231518 33 0.0 0.0 0.00 0.00 0.00 58 1015.1
20260902230100 34 0.0 0.0 0.00 0.00 0.00 56 1015.1
20260902224600 35 0.0 0.0 0.00 0.00 0.00 55 1015.2
20260902223041 35 0.0 0.0 0.00 0.00 0.00 57 1015.3
20260902221541 35 0.0 0.0 0.00 0.00 0.00 54 1015.3
20260902220029 35 0.0 0.0 0.00 0.00 0.00 55 1015.4
20260902214522 35 0.0 0.0 0.00 0.00 0.00 55 1015.5
20260902213011 35 0.0 0.0 0.00 0.00 0.00 54 1015.6
20260902211510 35 0.0 0.0 0.00 0.00 0.00 52 1015.5
20260902210009 35 0.0 0.0 0.00 0.00 0.00 52 1015.6
20260902204511 35 0.0 0.0 0.00 0.00 0.00 50 1015.8
20260902203004 35 0.0 0.0 0.00 0.00 0.00 51 1016.0
20260902201502 35 0.0 0.0 0.00 0.00 0.00 50 1016.2
20260902200002 35 0.0 0.0 0.00 0.00 0.00 55 1016.3
20260902194601 35 0.0 0.0 0.00 0.00 0.00 56 1016.4
20260902193040 35 0.0 0.0 0.00 0.00 0.00 54 1016.8
20260902191638 35 0.0 0.0 0.00 0.00 0.00 54 1016.9
20260902190018 34 0.0 0.0 0.00 0.00 0.00 54 1017.1
20260902184518 34 0.0 0.0 0.00 0.00 0.00 55 1017.4
20260902183059 33 0.0 0.0 0.00 0.00 0.00 55 1017.5
20260902181612 33 0.0 0.0 0.00 0.00 0.00 57 1017.7